| time (UTC) | temp C | wind direction | speed KPH | gust KPH | rain 1hr cm | rain 24hr cm | rain mn cm | humidity % | barometer mb |
| 20260503055052 | 2 | 0.0 | 0.0 | 0.00 | 0.00 | 0.00 | 79 | 1011.1 | |
| 20260503054025 | 2 | 0.0 | 0.0 | 0.00 | 0.00 | 0.00 | 78 | 1011.1 | |
| 20260503053020 | 2 | 0.0 | 0.0 | 0.00 | 0.00 | 0.00 | 78 | 1011.3 | |
| 20260503052036 | 2 | 0.0 | 0.0 | 0.00 | 0.00 | 0.00 | 78 | 1011.3 | |
| 20260503051031 | 2 | 0.0 | 0.0 | 0.00 | 0.00 | 0.00 | 77 | 1011.3 | |
| 20260503050026 | 2 | 0.0 | 0.0 | 0.00 | 0.00 | 0.00 | 77 | 1011.4 | |
| 20260503045022 | 2 | 0.0 | 0.0 | 0.00 | 0.00 | 0.00 | 76 | 1011.4 | |
| 20260503044018 | 2 | 0.0 | 0.0 | 0.00 | 0.00 | 0.00 | 76 | 1011.4 | |
| 20260503043033 | 2 | 0.0 | 0.0 | 0.00 | 0.00 | 0.00 | 76 | 1011.5 | |
| 20260503042028 | 2 | 0.0 | 0.0 | 0.00 | 0.00 | 0.00 | 75 | 1011.6 | |
| 20260503041023 | 2 | 0.0 | 0.0 | 0.00 | 0.00 | 0.00 | 74 | 1011.8 | |
| 20260503040019 | 2 | 62 | 0.0 | 1.6 | 0.00 | 0.00 | 0.00 | 74 | 1011.8 |
| 20260503035035 | 3 | 79 | 0.0 | 3.2 | 0.00 | 0.00 | 0.00 | 73 | 1011.8 |
| 20260503034030 | 3 | 0.0 | 0.0 | 0.00 | 0.00 | 0.00 | 72 | 1012.0 | |
| 20260503033025 | 3 | 0.0 | 0.0 | 0.00 | 0.00 | 0.00 | 71 | 1012.0 | |
| 20260503032021 | 3 | 0.0 | 0.0 | 0.00 | 0.00 | 0.00 | 70 | 1012.2 | |
| 20260503031037 | 4 | 0.0 | 0.0 | 0.00 | 0.00 | 0.00 | 70 | 1012.3 | |
| 20260503030034 | 4 | 0.0 | 0.0 | 0.00 | 0.00 | 0.00 | 69 | 1012.3 | |
| 20260503025028 | 5 | 0.0 | 0.0 | 0.00 | 0.00 | 0.00 | 69 | 1012.4 | |
| 20260503024024 | 5 | 0.0 | 0.0 | 0.00 | 0.00 | 0.00 | 67 | 1012.2 | |
| 20260503023019 | 5 | 0.0 | 0.0 | 0.00 | 0.00 | 0.00 | 67 | 1012.4 | |
| 20260503022057 | 6 | 0.0 | 0.0 | 0.00 | 0.00 | 0.00 | 66 | 1012.3 | |
| 20260503021029 | 6 | 0.0 | 0.0 | 0.00 | 0.00 | 0.00 | 65 | 1012.5 | |
| 20260503020206 | 7 | 100 | 1.6 | 3.2 | 0.00 | 0.00 | 0.00 | 64 | 1012.4 |
| 20260503015022 | 7 | 89 | 1.6 | 3.2 | 0.00 | 0.00 | 0.00 | 64 | 1012.4 |
| 20260503014018 | 8 | 80 | 3.2 | 6.4 | 0.00 | 0.00 | 0.00 | 63 | 1012.4 |
| 20260503013053 | 8 | 88 | 3.2 | 6.4 | 0.00 | 0.00 | 0.00 | 63 | 1012.4 |
| 20260503012049 | 9 | 85 | 4.8 | 6.4 | 0.00 | 0.00 | 0.00 | 61 | 1012.3 |
| 20260503011025 | 10 | 84 | 4.8 | 9.7 | 0.00 | 0.00 | 0.00 | 56 | 1012.3 |
| 20260503010021 | 11 | 84 | 4.8 | 6.4 | 0.00 | 0.00 | 0.00 | 53 | 1012.4 |
| 20260503005036 | 12 | 84 | 3.2 | 4.8 | 0.00 | 0.00 | 0.00 | 45 | 1012.3 |
| 20260503004031 | 12 | 202 | 3.2 | 12.9 | 0.00 | 0.00 | 0.00 | 43 | 1012.2 |
| 20260503003027 | 13 | 187 | 3.2 | 6.4 | 0.00 | 0.00 | 0.00 | 40 | 1012.5 |
| 20260503002023 | 13 | 223 | 3.2 | 9.7 | 0.00 | 0.00 | 0.00 | 40 | 1012.5 |
| 20260503001019 | 15 | 213 | 1.6 | 4.8 | 0.00 | 0.00 | 0.00 | 38 | 1012.7 |
| 20260503000054 | 15 | 244 | 1.6 | 4.8 | 0.00 | 0.00 | 0.00 | 37 | 1012.7 |
| 20260502235050 | 16 | 228 | 6.4 | 17.7 | 0.00 | 0.00 | 0.00 | 36 | 1012.7 |
| 20260502234046 | 16 | 272 | 4.8 | 11.3 | 0.00 | 0.00 | 0.00 | 36 | 1012.8 |
| 20260502233021 | 16 | 230 | 6.4 | 14.5 | 0.00 | 0.00 | 0.00 | 36 | 1013.1 |
| 20260502232036 | 16 | 222 | 11.3 | 24.1 | 0.00 | 0.00 | 0.00 | 35 | 1013.1 |
| 20260502231032 | 17 | 226 | 8.0 | 16.1 | 0.00 | 0.00 | 0.00 | 35 | 1013.0 |
| 20260502230028 | 17 | 262 | 8.0 | 14.5 | 0.00 | 0.00 | 0.00 | 34 | 1013.1 |
| 20260502225044 | 18 | 229 | 8.0 | 16.1 | 0.00 | 0.00 | 0.00 | 34 | 1013.5 |
| 20260502224039 | 18 | 274 | 8.0 | 16.1 | 0.00 | 0.00 | 0.00 | 33 | 1013.5 |
| 20260502223034 | 18 | 236 | 9.7 | 22.5 | 0.00 | 0.00 | 0.00 | 32 | 1013.5 |
| 20260502222029 | 19 | 246 | 8.0 | 17.7 | 0.00 | 0.00 | 0.00 | 32 | 1013.6 |
| 20260502221025 | 20 | 270 | 9.7 | 20.9 | 0.00 | 0.00 | 0.00 | 31 | 1013.6 |
| 20260502220020 | 20 | 256 | 9.7 | 17.7 | 0.00 | 0.00 | 0.00 | 31 | 1013.9 |
| 20260502215016 | 20 | 243 | 8.0 | 16.1 | 0.00 | 0.00 | 0.00 | 33 | 1013.8 |
| 20260502214032 | 20 | 225 | 12.9 | 25.7 | 0.00 | 0.00 | 0.00 | 31 | 1014.1 |
| 20260502213028 | 20 | 253 | 9.7 | 17.7 | 0.00 | 0.00 | 0.00 | 33 | 1014.2 |
| 20260502212024 | 20 | 242 | 4.8 | 14.5 | 0.00 | 0.00 | 0.00 | 32 | 1014.1 |
| 20260502211019 | 21 | 272 | 6.4 | 16.1 | 0.00 | 0.00 | 0.00 | 33 | 1014.3 |
| 20260502210035 | 20 | 244 | 11.3 | 24.1 | 0.00 | 0.00 | 0.00 | 32 | 1014.4 |
| 20260502205030 | 20 | 269 | 9.7 | 17.7 | 0.00 | 0.00 | 0.00 | 34 | 1014.4 |
| 20260502204026 | 20 | 234 | 11.3 | 20.9 | 0.00 | 0.00 | 0.00 | 32 | 1014.6 |
| 20260502203021 | 21 | 274 | 8.0 | 17.7 | 0.00 | 0.00 | 0.00 | 32 | 1014.8 |
| 20260502202018 | 20 | 247 | 8.0 | 20.9 | 0.00 | 0.00 | 0.00 | 36 | 1014.9 |
| 20260502201034 | 18 | 268 | 6.4 | 11.3 | 0.00 | 0.00 | 0.00 | 34 | 1015.1 |
| 20260502200028 | 18 | 237 | 4.8 | 14.5 | 0.00 | 0.00 | 0.00 | 37 | 1015.1 |
| 20260502195023 | 18 | 246 | 6.4 | 14.5 | 0.00 | 0.00 | 0.00 | 35 | 1015.3 |
| 20260502194018 | 19 | 280 | 9.7 | 24.1 | 0.00 | 0.00 | 0.00 | 33 | 1015.5 |
| 20260502193033 | 18 | 228 | 11.3 | 24.1 | 0.00 | 0.00 | 0.00 | 35 | 1015.7 |
| 20260502192031 | 17 | 236 | 8.0 | 24.1 | 0.00 | 0.00 | 0.00 | 37 | 1015.8 |
| 20260502191025 | 18 | 255 | 9.7 | 16.1 | 0.00 | 0.00 | 0.00 | 36 | 1015.8 |
| 20260502190020 | 18 | 228 | 8.0 | 20.9 | 0.00 | 0.00 | 0.00 | 37 | 1015.8 |
| 20260502185016 | 17 | 271 | 6.4 | 12.9 | 0.00 | 0.00 | 0.00 | 37 | 1016.1 |
| 20260502184031 | 16 | 239 | 8.0 | 27.4 | 0.00 | 0.00 | 0.00 | 38 | 1016.3 |
| 20260502183025 | 17 | 248 | 8.0 | 20.9 | 0.00 | 0.00 | 0.00 | 36 | 1016.4 |
| 20260502182020 | 18 | 251 | 8.0 | 17.7 | 0.00 | 0.00 | 0.00 | 36 | 1016.4 |
| 20260502181017 | 17 | 239 | 6.4 | 14.5 | 0.00 | 0.00 | 0.00 | 37 | 1016.5 |
| 20260502164035 | 16 | 240 | 8.0 | 14.5 | 0.00 | 0.00 | 0.00 | 41 | 1017.3 |
| 20260502163031 | 15 | 225 | 8.0 | 17.7 | 0.00 | 0.00 | 0.00 | 41 | 1017.3 |
| 20260502162025 | 16 | 260 | 8.0 | 22.5 | 0.00 | 0.00 | 0.00 | 42 | 1017.5 |
| 20260502161021 | 16 | 238 | 9.7 | 22.5 | 0.00 | 0.00 | 0.00 | 40 | 1017.6 |
| 20260502152017 | 14 | 270 | 9.7 | 20.9 | 0.00 | 0.00 | 0.00 | 43 | 1018.0 |
| 20260502151034 | 14 | 276 | 6.4 | 16.1 | 0.00 | 0.00 | 0.00 | 47 | 1018.0 |
| 20260502123035 | 1 | 0.0 | 0.0 | 0.00 | 0.00 | 0.00 | 84 | 1019.0 | |
| 20260502122031 | 0 | 0.0 | 0.0 | 0.00 | 0.00 | 0.00 | 84 | 1019.0 | |
| 20260502121027 | 0 | 0.0 | 0.0 | 0.00 | 0.00 | 0.00 | 84 | 1019.1 | |
| 20260502115018 | 0 | 0.0 | 0.0 | 0.00 | 0.00 | 0.00 | 83 | 1019.1 | |
| 20260502114033 | 0 | 0.0 | 0.0 | 0.00 | 0.00 | 0.00 | 83 | 1018.9 | |
| 20260502113028 | -1 | 0.0 | 0.0 | 0.00 | 0.00 | 0.00 | 83 | 1018.9 | |
| 20260502112024 | -1 | 0.0 | 0.0 | 0.00 | 0.00 | 0.00 | 83 | 1018.8 | |
| 20260502111039 | -1 | 0.0 | 0.0 | 0.00 | 0.00 | 0.00 | 83 | 1018.8 | |
| 20260502110034 | -1 | 0.0 | 0.0 | 0.00 | 0.00 | 0.00 | 83 | 1018.8 | |
| 20260502105030 | -2 | 0.0 | 0.0 | 0.00 | 0.00 | 0.00 | 83 | 1018.9 | |
| 20260502104026 | -2 | 0.0 | 0.0 | 0.00 | 0.00 | 0.00 | 82 | 1018.9 | |
| 20260502103021 | -2 | 0.0 | 0.0 | 0.00 | 0.00 | 0.00 | 82 | 1018.8 | |
| 20260502102037 | -1 | 0.0 | 0.0 | 0.00 | 0.00 | 0.00 | 82 | 1018.7 | |
| 20260502101031 | -1 | 0.0 | 0.0 | 0.00 | 0.00 | 0.00 | 82 | 1018.7 | |
| 20260502091026 | -1 | 0.0 | 0.0 | 0.00 | 0.00 | 0.00 | 81 | 1018.8 | |
| 20260502071052 | -2 | 0.0 | 0.0 | 0.00 | 0.00 | 0.00 | 80 | 1018.9 |